When you browse on this site, cookies collect data to enhance your experience and personalize the content and advertising you see.
Visit our Privacy Policy to learn more. By continuing to use the site, you agree to this use of cookies and data.
  • en France
  • Liste des pays
  • À 7 jours
  • Température de l'eau
  • Carte satellitaire
  • Carte météo
  • Widgets météo
  • user-avatar
    Se connecter

    Météo par heure à Mikulino

    Ce jour, 23 Février, Samedi

    Heure Température Précipitation Vent Pression Humidité
    00:00 -12°C° 0 mm 4 m/s 756 mmHg 84%
    01:00 -14°C° 0 mm 4 m/s 756 mmHg 85%
    02:00 -13°C° 0 mm 3 m/s 757 mmHg 88%
    03:00 -13°C° 0 mm 3 m/s 757 mmHg 90%
    04:00 -14°C° 0 mm 3 m/s 757 mmHg 91%
    05:00 -14°C° 0 mm 3 m/s 757 mmHg 92%
    06:00 -14°C° 0 mm 3 m/s 757 mmHg 91%
    07:00 -12°C° 0 mm 2 m/s 758 mmHg 90%
    08:00 -12°C° 0 mm 2 m/s 758 mmHg 87%
    09:00 -12°C° 0 mm 3 m/s 758 mmHg 83%
    10:00 -9°C° 0 mm 3 m/s 758 mmHg 79%
    11:00 -8°C° 0 mm 3 m/s 757 mmHg 74%
    12:00 -8°C° 0 mm 4 m/s 757 mmHg 74%
    13:00 -8°C° 0 mm 5 m/s 756 mmHg 73%
    14:00 -8°C° 0 mm 5 m/s 756 mmHg 68%
    15:00 -8°C° 0.2 mm 5 m/s 755 mmHg 73%
    16:00 -9°C° 0.2 mm 6 m/s 754 mmHg 78%
    17:00 -9°C° 0.2 mm 6 m/s 753 mmHg 82%
    18:00 -9°C° 0.3 mm 6 m/s 753 mmHg 84%
    19:00 -9°C° 0.3 mm 6 m/s 752 mmHg 86%
    20:00 -9°C° 0.3 mm 6 m/s 752 mmHg 88%
    21:00 -8°C° 0.2 mm 6 m/s 752 mmHg 89%
    22:00 -7°C° 0.2 mm 5 m/s 751 mmHg 90%
    23:00 -7°C° 0.2 mm 5 m/s 750 mmHg 90%

    Demain, 24 Février, Dimanche

    Heure Température Précipitation Vent Pression Humidité
    00:00 -6°C° 0 mm 5 m/s 750 mmHg 91%
    01:00 -5°C° 0 mm 5 m/s 750 mmHg 92%
    02:00 -4°C° 0 mm 4 m/s 750 mmHg 92%
    03:00 -3°C° 0 mm 4 m/s 750 mmHg 93%
    04:00 -3°C° 0 mm 4 m/s 750 mmHg 93%
    05:00 -3°C° 0 mm 4 m/s 750 mmHg 94%
    06:00 -3°C° 0 mm 4 m/s 750 mmHg 94%
    07:00 -2°C° 0 mm 3 m/s 750 mmHg 95%
    08:00 -1°C° 0 mm 3 m/s 750 mmHg 95%
    09:00 -1°C° 0 mm 3 m/s 750 mmHg 96%
    10:00 -1°C° 0 mm 3 m/s 750 mmHg 97%
    11:00 -1°C° 0 mm 3 m/s 750 mmHg 99%
    12:00 -1°C° 0 mm 3 m/s 750 mmHg 99%
    13:00 0°C° 0 mm 3 m/s 750 mmHg 99%
    14:00 0°C° 0 mm 3 m/s 750 mmHg 99%
    15:00 0°C° 0 mm 3 m/s 749 mmHg 98%
    16:00 -1°C° 0 mm 4 m/s 749 mmHg 97%
    17:00 -2°C° 0 mm 4 m/s 749 mmHg 96%
    18:00 -2°C° 0 mm 4 m/s 749 mmHg 96%
    19:00 -2°C° 0 mm 4 m/s 748 mmHg 95%
    20:00 -1°C° 0 mm 4 m/s 748 mmHg 95%
    21:00 -2°C° 0.1 mm 4 m/s 747 mmHg 95%
    22:00 -2°C° 0.1 mm 5 m/s 747 mmHg 94%
    23:00 -2°C° 0.1 mm 5 m/s 746 mmHg 94%

    Après-demain, 25 Février, Lundi

    Heure Température Précipitation Vent Pression Humidité
    00:00 -1°C° 0.1 mm 5 m/s 746 mmHg 94%
    01:00 -1°C° 0.1 mm 5 m/s 745 mmHg 94%
    02:00 -1°C° 0.1 mm 4 m/s 745 mmHg 94%
    03:00 -1°C° 0 mm 5 m/s 745 mmHg 94%
    04:00 -1°C° 0 mm 5 m/s 745 mmHg 93%
    05:00 -1°C° 0 mm 5 m/s 744 mmHg 93%
    06:00 -2°C° 0 mm 5 m/s 744 mmHg 93%
    07:00 -4°C° 0 mm 5 m/s 744 mmHg 93%
    08:00 -4°C° 0 mm 5 m/s 744 mmHg 93%
    09:00 -4°C° 0 mm 5 m/s 744 mmHg 92%
    10:00 -2°C° 0 mm 5 m/s 743 mmHg 92%
    11:00 -1°C° 0 mm 5 m/s 743 mmHg 91%
    12:00 -2°C° 0 mm 6 m/s 743 mmHg 89%
    13:00 -2°C° 0 mm 6 m/s 743 mmHg 87%
    14:00 -2°C° 0 mm 7 m/s 742 mmHg 86%
    15:00 -2°C° 0 mm 6 m/s 742 mmHg 85%
    16:00 -2°C° 0 mm 6 m/s 742 mmHg 84%
    17:00 -2°C° 0 mm 6 m/s 742 mmHg 83%
    18:00 -2°C° 0 mm 6 m/s 742 mmHg 84%
    19:00 -2°C° 0 mm 6 m/s 742 mmHg 84%
    20:00 -2°C° 0 mm 7 m/s 742 mmHg 85%
    21:00 -2°C° 0 mm 6 m/s 742 mmHg 86%
    22:00 -2°C° 0 mm 6 m/s 741 mmHg 86%
    23:00 -2°C° 0 mm 6 m/s 741 mmHg 86%

    26 Février, Mardi

    Heure Température Précipitation Vent Pression Humidité
    00:00 -2°C° 0 mm 6 m/s 741 mmHg 87%
    01:00 -2°C° 0 mm 5 m/s 741 mmHg 88%
    02:00 -2°C° 0 mm 5 m/s 741 mmHg 89%
    03:00 -2°C° 0 mm 5 m/s 740 mmHg 89%
    04:00 -2°C° 0 mm 5 m/s 740 mmHg 90%
    05:00 -2°C° 0 mm 5 m/s 739 mmHg 91%
    06:00 -4°C° 0.2 mm 5 m/s 739 mmHg 91%
    07:00 -4°C° 0.2 mm 5 m/s 738 mmHg 91%
    08:00 -4°C° 0.2 mm 6 m/s 738 mmHg 91%
    09:00 -2°C° 0.2 mm 5 m/s 738 mmHg 91%
    10:00 -2°C° 0.2 mm 5 m/s 737 mmHg 92%
    11:00 -1°C° 0.2 mm 5 m/s 737 mmHg 92%
    12:00 -1°C° 0.1 mm 5 m/s 738 mmHg 91%
    13:00 -1°C° 0.1 mm 5 m/s 738 mmHg 90%
    14:00 -1°C° 0.1 mm 5 m/s 738 mmHg 90%
    15:00 -1°C° 0 mm 5 m/s 739 mmHg 87%
    16:00 -1°C° 0 mm 5 m/s 739 mmHg 85%
    17:00 -2°C° 0 mm 5 m/s 740 mmHg 83%
    18:00 -2°C° 0 mm 5 m/s 741 mmHg 83%
    19:00 -2°C° 0 mm 5 m/s 741 mmHg 82%
    20:00 -4°C° 0 mm 5 m/s 742 mmHg 82%
    21:00 -4°C° 0 mm 5 m/s 742 mmHg 83%
    22:00 -4°C° 0 mm 4 m/s 743 mmHg 84%
    23:00 -5°C° 0 mm 4 m/s 743 mmHg 85%

    27 Février, Mercredi

    Heure Température Précipitation Vent Pression Humidité
    00:00 -5°C° 0 mm 4 m/s 743 mmHg 86%
    01:00 -5°C° 0 mm 4 m/s 743 mmHg 87%
    02:00 -7°C° 0 mm 4 m/s 743 mmHg 87%
    03:00 -7°C° 0 mm 4 m/s 743 mmHg 88%
    04:00 -7°C° 0 mm 4 m/s 743 mmHg 89%
    05:00 -7°C° 0 mm 3 m/s 743 mmHg 90%
    06:00 -7°C° 0 mm 3 m/s 743 mmHg 89%
    07:00 -6°C° 0 mm 3 m/s 743 mmHg 88%
    08:00 -6°C° 0 mm 3 m/s 743 mmHg 87%
    09:00 -5°C° 0 mm 3 m/s 742 mmHg 86%
    10:00 -4°C° 0 mm 3 m/s 742 mmHg 85%
    11:00 -4°C° 0 mm 3 m/s 741 mmHg 83%
    12:00 -3°C° 0.2 mm 4 m/s 740 mmHg 86%
    13:00 -2°C° 0.2 mm 4 m/s 740 mmHg 89%
    14:00 -2°C° 0.2 mm 5 m/s 739 mmHg 92%
    15:00 -1°C° 0.1 mm 5 m/s 739 mmHg 91%
    16:00 -1°C° 0.1 mm 5 m/s 739 mmHg 89%
    17:00 -1°C° 0.1 mm 4 m/s 738 mmHg 88%
    18:00 -2°C° 0 mm 4 m/s 738 mmHg 89%
    19:00 -2°C° 0 mm 4 m/s 738 mmHg 89%
    20:00 -2°C° 0 mm 3 m/s 738 mmHg 90%
    21:00 -2°C° 0 mm 3 m/s 738 mmHg 91%
    22:00 -4°C° 0 mm 3 m/s 738 mmHg 93%
    23:00 -4°C° 0 mm 3 m/s 737 mmHg 94%

    28 Février, Jeudi

    Heure Température Précipitation Vent Pression Humidité
    00:00 -4°C° 0 mm 3 m/s 737 mmHg 95%
    01:00 -4°C° 0 mm 3 m/s 736 mmHg 96%
    02:00 -4°C° 0 mm 3 m/s 736 mmHg 96%
    03:00 -4°C° 0 mm 3 m/s 735 mmHg 96%
    04:00 -4°C° 0 mm 3 m/s 734 mmHg 96%
    05:00 -4°C° 0 mm 3 m/s 733 mmHg 96%
    06:00 -4°C° 0.1 mm 3 m/s 732 mmHg 96%
    07:00 -4°C° 0.1 mm 3 m/s 731 mmHg 95%
    08:00 -4°C° 0.1 mm 3 m/s 730 mmHg 95%
    09:00 -3°C° 0.1 mm 4 m/s 729 mmHg 93%
    10:00 -2°C° 0.1 mm 5 m/s 728 mmHg 90%
    11:00 -1°C° 0.1 mm 5 m/s 727 mmHg 88%
    12:00 -1°C° 0.3 mm 5 m/s 726 mmHg 90%
    13:00 -1°C° 0.3 mm 5 m/s 725 mmHg 91%
    14:00 -1°C° 0.3 mm 5 m/s 723 mmHg 93%
    15:00 -1°C° 0.4 mm 5 m/s 723 mmHg 94%
    16:00 -1°C° 0.4 mm 5 m/s 722 mmHg 94%
    17:00 -1°C° 0.4 mm 5 m/s 722 mmHg 94%
    18:00 -1°C° 0.3 mm 5 m/s 722 mmHg 91%
    19:00 -2°C° 0.3 mm 6 m/s 722 mmHg 89%
    20:00 -2°C° 0.3 mm 6 m/s 722 mmHg 86%
    21:00 -2°C° 0.1 mm 6 m/s 721 mmHg 87%
    22:00 -2°C° 0.1 mm 6 m/s 721 mmHg 88%
    23:00 -2°C° 0.1 mm 6 m/s 721 mmHg 89%
    Voir plus